Location: Chefe Valiua
(16.5342°S, 37.2214°E)
Time: 05:55:53
(UTC+00:00)

SL-08 RB Rocket - Pass Details

Date: 19 January 2021
Orbit: 647 x 683 km, 97.8° (Epoch: 07 March)

Event Time Altitude Azimuth Distance (km) Brightness Sun altitude
Rises 17:08:11 0° 161° (SSE) 3,057 7.2 -13.4°
Reaches altitude 10° 17:10:30 10° 156° (SSE) 2,134 6.3 -13.9°
Maximum altitude 17:15:03 52° 80° (E) 844 3.8 -14.9°
Drops below altitude 10° 17:19:31 10° 3° (N) 2,095 6.0 -15.9°
Enters shadow 17:21:13 - 359° (N) 2,774 6.6 -16.2°
